Location: Powder Track
(41.8531°N, 72.3584°W)
Time: 18:24:34
(UTC+00:00)

Vanguard 1 Rocket - Pass Details

Date: 10 August 2021
Orbit: 650 x 4226 km, 34.3° (Epoch: 20 September)

Event Time Altitude Azimuth Distance (km) Brightness Sun altitude
Rises 10:03:38 0° 207° (SSW) 7,898 11.7 1.1°
Reaches altitude 10° 10:09:34 10° 200° (SSW) 7,163 11.6 2.1°
Maximum altitude 10:31:19 37° 143° (SE) 5,357 11.6 6.0°
Drops below altitude 10° 10:49:49 10° 86° (E) 6,229 14.3 9.3°
Sets 10:54:21 0° 79° (ENE) 6,830 14.2 10.1°
